Weather Service Report


067 
ASUS43 KFSD 080802
RWRFSD

WEATHER ROUNDUP FOR SE SOUTH DAKOTA/SW MINNESOTA/NW IOWA
NATIONAL WEATHER SERVICE SIOUX FALLS SD
200 AM CST THU DEC 08 2016

NOTE: "FAIR" INDICATES FEW OR NO CLOUDS BELOW 12,000 FEET WITH NO
SIGNIFICANT WEATHER AND OR OBSTRUCTIONS TO VISIBILITY.


SDZ038>040-050-052>070-080900-
SOUTHEAST SOUTH DAKOTA
  
CITY           SKY/WX    TMP DP  RH WIND       PRES   REMARKS
CHAMBERLAIN    PTCLDY     8   3  78 NW16      30.51F WCI -10          
HURON          FLURRIES   7   2  80 NW25G32   30.46R WCI -15          
MADISON        LGT RAIN   7   5  92 NW24G30   30.36R WCI -15          
MITCHELL       CLEAR      8   1  73 NW18      30.50R WCI -11          
SIOUX FALLS    CLOUDY     8   3  80 NW23G31   30.39R WCI -13          
WINNER         PTSUNNY    7  -2  66 NW16      30.52R WCI -11          
YANKTON        PTCLDY   N/A N/A N/A NW25G32   30.46S                  
$$

MNZ071-072-080-081-089-090-097-098-080900-
SOUTHWEST MINNESOTA
  
CITY           SKY/WX    TMP DP  RH WIND       PRES   REMARKS
FAIRMONT       FLURRIES  11   5  77 W22G30    30.27R WCI  -8          
JACKSON        CLOUDY     9   3  78 W22G29    30.27S WCI -11          
LUVERNE        CLOUDY    10   3  72 NW22G31   30.36R WCI  -9          
MARSHALL       FLURRIES  12   6  77 NW25G31   30.30R WCI  -8          
MONTEVIDEO     LGT SNOW  14  10  85 N17G29    30.29S WCI  -3          
PIPESTONE      LGT SNOW   9   3  78 NW17G29   30.31R WCI -10          
REDWOOD FALLS  LGT SNOW  14   8  77 W18G29    30.27R WCI  -3          
TRACY          FLURRIES  12   7  80 NW20G26   30.30R WCI  -6          
WINDOM         LGT SNOW  10   7  85 W25       30.26S WCI -10          
WORTHINGTON    FLURRIES   8   3  80 W23G33    30.29S WCI -13          
$$

IAZ001>003-012>014-020>022-031-032-NEZ013-014-SDZ071-080900-
NORTHWEST IOWA
  
CITY           SKY/WX    TMP DP  RH WIND       PRES   REMARKS
CHEROKEE       CLEAR     10   3  75 NW14G23   30.39R WCI  -7          
DENISON        CLOUDY    10   5  79 NW18G29   30.39S WCI  -8          
ESTHERVILLE    PTCLDY     9   4  80 W26G36    30.29R WCI -13          
LE MARS        PTCLDY    10   3  72 NW18G26   30.44R WCI  -8          
ORANGE CITY    CLEAR      9   3  78 NW24G31   30.37S WCI -12          
SHELDON        CLOUDY     9   3  78 NW21G26   30.34S WCI -11          
SIOUX CITY     PTCLDY    14   3  61 NW21G32   30.43R WCI  -4          
SPENCER        CLEAR      9   3  77 W29G36    30.33S WCI -13          
STORM LAKE     PTCLDY     9   3  78 NW21G31   30.34S WCI -11          
$$
 
ABBREVIATIONS USED IN REMARKS
   TC - TEMPERATURE IN CELSIUS
  WCI - WIND CHILL INDEX
   HX - HEAT INDEX
  VSB - VISIBILITY

  


068 
ASUS43 KFSD 080802
RWRSD 

WEATHER ROUNDUP FOR SOUTH DAKOTA
NATIONAL WEATHER SERVICE SIOUX FALLS SD
200 AM CST THU DEC 08 2016

NOTE: "FAIR" INDICATES FEW OR NO CLOUDS BELOW 12,000 FEET WITH NO
SIGNIFICANT WEATHER AND/OR OBSTRUCTIONS TO VISIBILITY.


SDZ001>005-009-010-012>017-080900-
NORTHWEST AND NORTH CENTRAL SOUTH DAKOTA
  
CITY           SKY/WX    TMP DP  RH WIND       PRES   REMARKS
BUFFALO          N/A     -1  -6  79 W15       30.42F WCI -21          
FAITH            N/A      0  -5  79 NW18      30.50R WCI -21          
MOBRIDGE       CLOUDY     6  -3  66 NW18G32   30.48R WCI -13          
$$
 
SDZ012>016-024>037-041>051-057-063-072>074-080900-
SOUTHWEST AND SOUTH CENTRAL SOUTH DAKOTA
  
CITY           SKY/WX    TMP DP  RH WIND       PRES   REMARKS
RAPID CTY ARPT CLEAR      2  -6  69 N15       30.50R WCI -17          
PIERRE         MOCLDY     8   0  69 NW25      30.52R WCI -13          
CUSTER         CLEAR     -5 -13  68 N3        30.26F                  
ELLSWORTH AFB  CLEAR      2  -6  67 N15       30.48S WCI -16          
PHILIP         CLEAR      3  -4  72 NW15      30.55S WCI -16          
PINE RIDGE     CLOUDY   -13 -17  82 CALM      30.51R                  
SPEARFISH      FAIR      -2  -9  71 W8        30.46S WCI -17          
WINNER         PTSUNNY    7  -2  66 NW16      30.52R WCI -11          
$$
 
SDZ004>011-016>023-039-040-080900-
NORTHEAST SOUTH DAKOTA
  
CITY           SKY/WX    TMP DP  RH WIND       PRES   REMARKS
ABERDEEN       LGT SNOW  10   3  73 NW20      30.43R WCI  -9          
WATERTOWN      CLOUDY     8   4  83 NW21G29   30.32R FOG     WCI -12  
SISSETON         N/A     14   8  77 NW26G39   30.31R WCI  -6          
$$
 
SDZ017-020-022-023-036>040-048>070-080900-
SOUTHEAST SOUTH DAKOTA
  
CITY           SKY/WX    TMP DP  RH WIND       PRES   REMARKS
SIOUX FALLS    CLOUDY     8   3  80 NW23G31   30.39R WCI -13          
HURON          FLURRIES   7   2  80 NW25G32   30.46R WCI -15          
CHAMBERLAIN    PTCLDY     8   3  78 NW16      30.51F WCI -10          
MITCHELL       CLEAR      8   1  73 NW18      30.50R WCI -11          
YANKTON        PTCLDY   N/A N/A N/A NW25G32   30.46S                  
$$
 
ABBREVIATIONS USED IN REMARKS
   TC - TEMPERATURE IN CELSIUS
  WCI - WIND CHILL INDEX
   HX - HEAT INDEX
  VSB - VISIBILITY

  

Return to Home page


Western Regional Climate Center, wrcc@dri.edu